Retour au catalogue

EUTE 12 WEST B

ActifCommunicationsGEO
NORAD 26927·PAYLOAD·🇪🇺 EU

Lancé Sep 25, 2001 depuis Guiana Space Centre

Loading…

TLE

FraisSource: Space-Track

Époque: Sep 14, 2026, 14:03 UTC

1 26927U 01042A   26257.58567439  .00000014  00000-0  00000+0 0  9996
2 26927   6.8434  69.7497 0005019 213.5967 334.3399  0.98526578 91030

Suivez EUTE 12 WEST B en temps réel avec AllMySat

Download on the App Store